This demonstration page uses our WeatherBlox Daily Observations layout. Learn more.

Left ArrowRight Arrow

39.01783, -85.05884

Hourly Observations for November 22, 2018

Temp ( °F °C ) Dew Point ( °F °C ) Humidity (%) Winds ( mph kmh ) Pressure ( in mb ) Visibility ( mi km ) Precip ( " mm )
12:52 am 00:52 Clear with Mist and Fog 34 1.1 31 -0.6 89 89 E 5 7 30.36 1028 5 8 0.00 0.00
1:52 am 01:52 Clear with Mist and Fog 33 0.6 30 -1.1 89 89 E 6 9 30.36 1028 5 8 0.00 0.00
2:52 am 02:52 Clear with Mist and Fog 33 0.6 30 -1.1 89 89 NE 5 7 30.37 1028 5 8 0.00 0.00
3:52 am 03:52 Clear with Mist and Fog 32 0 30 -1.1 92 92 Calm 30.38 1029 4 6 0.00 0.00
4:52 am 04:52 Mostly Clear with Mist and Fog 31 -0.6 28 -2.2 89 89 NE 5 7 30.39 1029 4 6 0.00 0.00
5:52 am 05:52 Partly Cloudy with Mist and Fog 29 -1.7 28 -2.2 96 96 NE 5 7 30.40 1029 4 6 0.00 0.00
6:17 am 06:17 Partly Cloudy with Mist and Fog 29 -1.7 28 -2.2 96 96 ENE 5 7 30.45 1031 4 6 0.00 0.00
6:24 am 06:24 Partly Cloudy with Mist and Fog 31 -0.6 30 -1.1 96 96 NE 5 7 30.45 1031 4 6 0.00 0.00
6:52 am 06:52 Partly Cloudy with Patchy Fog 32 0 30 -1.1 92 92 ENE 7 11 30.41 1030 4 6 0.00 0.00
6:56 am 06:56 Partly Cloudy with Patchy Fog 32 0 30 -1.1 92 92 E 7 11 30.45 1031 4 6 0.00 0.00
7:14 am 07:14 Partly Cloudy with Patchy Fog 32 0 30 -1.1 92 92 E 8 13 30.45 1031 4 6 0.00 0.00
7:52 am 07:52 Mostly Cloudy with Mist and Fog 32 0 30 -1.1 92 92 ENE 8 13 30.42 1030 3 5 0.00 0.00
8:52 am 08:52 Partly Cloudy with Mist and Fog 33 0.6 31 -0.6 92 92 ENE 9 15 30.44 1031 4 6 0.00 0.00
9:52 am 09:52 Sunny with Mist and Fog 36 2.2 32 0 86 86 E 7 11 30.45 1031 5 8 0.00 0.00
10:52 am 10:52 Hazy 39 3.9 33 0.6 79 79 E 8 13 30.44 1031 6 10 0.00 0.00
11:52 am 11:52 Hazy 41 5 33 0.6 73 73 E 6 9 30.42 1030 6 10 0.00 0.00
12:52 pm 12:52 Sunny 43 6.1 33 0.6 68 68 ENE 7 11 30.39 1029 7 11 0.00 0.00
1:52 pm 13:52 Sunny 45 7.2 34 1.1 66 66 VRB 5 7 30.37 1028 7 11 0.00 0.00
2:52 pm 14:52 Hazy 46 7.8 34 1.1 63 63 VRB 5 7 30.34 1027 6 10 0.00 0.00
3:52 pm 15:52 Hazy 46 7.8 34 1.1 63 63 ENE 8 13 30.33 1027 6 10 0.00 0.00
4:52 pm 16:52 Hazy 44 6.7 34 1.1 68 68 ENE 8 13 30.33 1027 6 10 0.00 0.00
5:52 pm 17:52 Clear 40 4.4 34 1.1 79 79 E 9 15 30.33 1027 7 11 0.00 0.00
6:52 pm 18:52 Clear with Mist and Fog 38 3.3 34 1.1 86 86 E 9 15 30.32 1027 6 10 0.00 0.00
7:52 pm 19:52 Clear with Mist and Fog 36 2.2 33 0.6 89 89 E 7 11 30.33 1027 6 10 0.00 0.00
8:52 pm 20:52 Clear with Mist and Fog 36 2.2 32 0 86 86 E 7 11 30.33 1027 6 10 0.00 0.00
9:52 pm 21:52 Clear 37 2.8 32 0 82 82 E 9 15 30.33 1027 8 13 0.00 0.00
10:52 pm 22:52 Clear 37 2.8 31 -0.6 79 79 ESE 10 17 30.32 1027 8 13 0.00 0.00
11:52 pm 23:52 Clear 36 2.2 30 -1.1 79 79 ESE 8 13 30.31 1027 8 13 0.00 0.00

Powered by AerisWeather